WMT113 LFMN-EBBR

Flight info

Callsign WMT113
Flight time 1h 20m
Altitude 34000
Route IRMAR DCT KINES DCT VANAS DCT MOBLO DCT UBIMA DCT GILIR DCT PENDU DCT IXILU DCT GIVOR/N0429F320 DCT SORAL DCT IBERA N853 DIK Y37 BATTY
Aircraft A320/M-SDE3FGHIRWY/LB1

Departure

Time 2026-05-07 20:33
Airport Nice-Côte d'Azur Airport (LFMN)

Arrival

Time 2026-05-07 21:53
Airport Brussels Airport (EBBR)
Time Latitude Longitude Altitude Speed Heading
2026-05-07 20:05 43.65901 7.20659 21 ft 0 kts 315°
2026-05-07 20:22 43.65890 7.20674 21 ft 3 kts 315°
2026-05-07 20:22 43.65878 7.20691 21 ft 3 kts 315°
2026-05-07 20:23 43.65864 7.20708 20 ft 3 kts 343°
2026-05-07 20:23 43.65847 7.20712 20 ft 2 kts 351°
2026-05-07 20:23 43.65830 7.20712 20 ft 2 kts 18°
2026-05-07 20:23 43.65815 7.20703 22 ft 0 kts 46°
2026-05-07 20:25 43.65816 7.20705 22 ft 1 kts 46°
2026-05-07 20:25 43.65824 7.20717 21 ft 3 kts 50°
2026-05-07 20:26 43.65841 7.20746 20 ft 5 kts 50°
2026-05-07 20:26 43.65867 7.20797 20 ft 8 kts 65°
2026-05-07 20:26 43.65841 7.20860 20 ft 9 kts 166°
2026-05-07 20:26 43.65766 7.20877 20 ft 12 kts 171°
2026-05-07 20:27 43.65694 7.20890 19 ft 5 kts 172°
2026-05-07 20:27 43.65655 7.20898 21 ft 6 kts 170°
2026-05-07 20:27 43.65606 7.20910 20 ft 8 kts 169°
2026-05-07 20:27 43.65546 7.20925 21 ft 10 kts 169°
2026-05-07 20:28 43.65468 7.20942 20 ft 13 kts 172°
2026-05-07 20:28 43.65366 7.20954 19 ft 16 kts 189°
2026-05-07 20:28 43.65277 7.20854 19 ft 18 kts 225°
2026-05-07 20:28 43.65178 7.20719 19 ft 21 kts 226°
2026-05-07 20:29 43.65072 7.20577 21 ft 22 kts 223°
2026-05-07 20:29 43.64962 7.20419 23 ft 23 kts 226°
2026-05-07 20:29 43.64839 7.20254 21 ft 24 kts 224°
2026-05-07 20:29 43.64712 7.20218 23 ft 21 kts 139°
2026-05-07 20:30 43.64728 7.20331 24 ft 9 kts 44°
2026-05-07 20:30 43.64733 7.20337 23 ft 0 kts 44°
2026-05-07 20:32 43.64739 7.20346 23 ft 10 kts 44°
2026-05-07 20:32 43.64975 7.20670 23 ft 83 kts 45°
2026-05-07 20:32 43.65526 7.21429 27 ft 137 kts 45°
2026-05-07 20:33 43.66274 7.22480 299 ft 156 kts 47°
2026-05-07 20:33 43.66960 7.23605 911 ft 154 kts 68°
2026-05-07 20:33 43.66906 7.25024 1463 ft 157 kts 123°
2026-05-07 20:33 43.66094 7.26097 1891 ft 174 kts 145°
2026-05-07 20:34 43.65087 7.27197 2184 ft 196 kts 138°
2026-05-07 20:34 43.64027 7.28545 2531 ft 216 kts 136°
2026-05-07 20:34 43.62928 7.29991 3301 ft 220 kts 136°
2026-05-07 20:34 43.61755 7.31355 4119 ft 223 kts 153°
2026-05-07 20:35 43.60243 7.31730 4914 ft 226 kts 191°
2026-05-07 20:35 43.58813 7.30860 5707 ft 228 kts 211°
2026-05-07 20:35 43.57458 7.29701 6502 ft 231 kts 212°
2026-05-07 20:35 43.56101 7.28496 7276 ft 234 kts 218°
2026-05-07 20:36 43.55101 7.26725 8016 ft 238 kts 249°
2026-05-07 20:36 43.54882 7.24472 8773 ft 242 kts 279°
2026-05-07 20:36 43.55529 7.22341 9530 ft 245 kts 307°
2026-05-07 20:36 43.56590 7.20485 10269 ft 248 kts 308°
2026-05-07 20:37 43.57669 7.18612 10994 ft 251 kts 308°
2026-05-07 20:37 43.58389 7.17357 11478 ft 253 kts 308°
2026-05-07 20:37 43.59484 7.15446 12257 ft 255 kts 307°
2026-05-07 20:37 43.61135 7.13117 13233 ft 260 kts 324°
2026-05-07 20:38 43.62787 7.11939 13629 ft 280 kts 341°
2026-05-07 20:38 43.64731 7.11090 13840 ft 304 kts 342°
2026-05-07 20:38 43.66101 7.10498 13942 ft 319 kts 342°
2026-05-07 20:38 43.68325 7.09534 14085 ft 342 kts 341°
2026-05-07 20:39 43.70622 7.08534 14367 ft 357 kts 341°
2026-05-07 20:39 43.73012 7.07489 14922 ft 362 kts 341°
2026-05-07 20:39 43.75422 7.06427 15535 ft 365 kts 341°
2026-05-07 20:39 43.77857 7.05345 16156 ft 369 kts 341°
2026-05-07 20:40 43.80314 7.04250 16778 ft 372 kts 341°
2026-05-07 20:40 43.82789 7.03147 17394 ft 375 kts 341°
2026-05-07 20:40 43.85286 7.02034 17987 ft 378 kts 341°
2026-05-07 20:40 43.87805 7.00913 18569 ft 382 kts 340°
2026-05-07 20:41 43.90341 6.99783 19107 ft 385 kts 340°
2026-05-07 20:41 43.92898 6.98641 19671 ft 388 kts 340°
2026-05-07 20:41 43.95480 6.97492 20225 ft 391 kts 340°
2026-05-07 20:41 43.98080 6.96334 20762 ft 394 kts 340°
2026-05-07 20:42 44.00691 6.95167 21265 ft 396 kts 339°
2026-05-07 20:42 44.03293 6.94001 21781 ft 399 kts 339°
2026-05-07 20:42 44.05943 6.92817 22252 ft 402 kts 339°
2026-05-07 20:42 44.08611 6.91620 22783 ft 404 kts 339°
2026-05-07 20:43 44.11298 6.90415 23314 ft 407 kts 338°
2026-05-07 20:43 44.14019 6.89273 23744 ft 411 kts 343°
2026-05-07 20:43 44.16866 6.88653 24161 ft 417 kts 350°
2026-05-07 20:43 44.19761 6.88226 24578 ft 419 kts 350°
2026-05-07 20:44 44.22667 6.87795 24985 ft 421 kts 350°
2026-05-07 20:44 44.25592 6.87356 25373 ft 424 kts 349°
2026-05-07 20:44 44.28536 6.86907 25753 ft 426 kts 349°
2026-05-07 20:44 44.31495 6.86457 26153 ft 429 kts 349°
2026-05-07 20:45 44.34469 6.85999 26540 ft 431 kts 349°
2026-05-07 20:45 44.37460 6.85541 26938 ft 434 kts 349°
2026-05-07 20:45 44.40475 6.85087 27344 ft 437 kts 349°
2026-05-07 20:45 44.43502 6.84631 27738 ft 439 kts 349°
2026-05-07 20:46 44.46550 6.84170 28111 ft 442 kts 349°
2026-05-07 20:46 44.49575 6.83707 28520 ft 444 kts 348°
2026-05-07 20:46 44.52661 6.83234 28923 ft 447 kts 348°
2026-05-07 20:46 44.55763 6.82761 29336 ft 449 kts 348°
2026-05-07 20:47 44.58881 6.82287 29743 ft 452 kts 348°
2026-05-07 20:47 44.62018 6.81808 30082 ft 454 kts 348°
2026-05-07 20:47 44.65165 6.81324 30387 ft 456 kts 348°
2026-05-07 20:47 44.68328 6.80838 30734 ft 458 kts 348°
2026-05-07 20:48 44.71485 6.80353 31217 ft 457 kts 348°
2026-05-07 20:48 44.74616 6.79874 31650 ft 456 kts 347°
2026-05-07 20:48 44.77768 6.79389 32110 ft 455 kts 347°
2026-05-07 20:48 44.80917 6.78922 32576 ft 454 kts 348°
2026-05-07 20:49 44.84074 6.78586 33029 ft 455 kts 349°
2026-05-07 20:49 44.87240 6.78367 33470 ft 455 kts 350°
2026-05-07 20:49 44.90410 6.78216 33906 ft 456 kts 351°
2026-05-07 20:49 44.93586 6.78083 34018 ft 455 kts 351°
2026-05-07 20:50 44.96740 6.77934 34036 ft 453 kts 350°
2026-05-07 20:50 45.02986 6.77567 34038 ft 451 kts 350°
2026-05-07 20:51 45.09262 6.77144 34034 ft 451 kts 350°
2026-05-07 20:51 45.15535 6.76710 34039 ft 451 kts 351°
2026-05-07 20:52 45.21800 6.76285 34033 ft 451 kts 351°
2026-05-07 20:52 45.28076 6.75869 34032 ft 451 kts 351°
2026-05-07 20:53 45.34346 6.75449 34033 ft 451 kts 351°
2026-05-07 20:53 45.40617 6.75029 34034 ft 451 kts 352°
2026-05-07 20:54 45.46893 6.74612 34041 ft 451 kts 352°
2026-05-07 20:54 45.53162 6.74185 34035 ft 451 kts 352°
2026-05-07 20:55 45.59417 6.73752 34034 ft 450 kts 352°
2026-05-07 20:55 45.65673 6.73315 34039 ft 450 kts 352°
2026-05-07 20:56 45.71919 6.72887 34029 ft 449 kts 352°
2026-05-07 20:56 45.78165 6.72458 34024 ft 449 kts 352°
2026-05-07 20:57 45.84409 6.72032 34023 ft 449 kts 352°
2026-05-07 20:57 45.90649 6.71606 34023 ft 449 kts 352°
2026-05-07 20:58 45.96845 6.71196 34018 ft 449 kts 353°
2026-05-07 20:58 46.03082 6.70775 34022 ft 449 kts 353°
2026-05-07 20:59 46.09322 6.70343 34030 ft 449 kts 353°
2026-05-07 20:59 46.15382 6.68787 34030 ft 439 kts 336°
2026-05-07 21:00 46.21163 6.65964 34020 ft 437 kts 337°
2026-05-07 21:00 46.26943 6.63161 34022 ft 438 kts 337°
2026-05-07 21:01 46.32725 6.60352 34027 ft 438 kts 337°
2026-05-07 21:01 46.38501 6.57536 34023 ft 438 kts 337°
2026-05-07 21:02 46.44242 6.54723 34024 ft 438 kts 337°
2026-05-07 21:02 46.50021 6.51889 34033 ft 438 kts 337°
2026-05-07 21:03 46.55801 6.49043 34046 ft 438 kts 337°
2026-05-07 21:03 46.61558 6.46208 34050 ft 437 kts 337°
2026-05-07 21:04 46.67338 6.43364 34053 ft 437 kts 337°
2026-05-07 21:04 46.73089 6.40521 34056 ft 436 kts 337°
2026-05-07 21:05 46.78835 6.37662 34062 ft 436 kts 336°
2026-05-07 21:05 46.84576 6.34805 34060 ft 435 kts 336°
2026-05-07 21:06 46.90305 6.31955 34065 ft 435 kts 336°
2026-05-07 21:06 46.96031 6.29095 34070 ft 434 kts 336°
2026-05-07 21:07 47.01707 6.26254 34063 ft 434 kts 336°
2026-05-07 21:07 47.07372 6.23199 34060 ft 430 kts 329°
2026-05-07 21:08 47.12736 6.19321 34064 ft 429 kts 329°
2026-05-07 21:08 47.18098 6.15448 34066 ft 429 kts 329°
2026-05-07 21:09 47.23452 6.11577 34064 ft 429 kts 329°
2026-05-07 21:09 47.28763 6.07723 34062 ft 428 kts 329°
2026-05-07 21:10 47.34260 6.04289 34061 ft 434 kts 341°
2026-05-07 21:10 47.40327 6.03376 34056 ft 444 kts 356°
2026-05-07 21:11 47.46507 6.03530 34059 ft 444 kts 356°
2026-05-07 21:11 47.55786 6.03734 34063 ft 444 kts 356°
2026-05-07 21:12 47.61971 6.03863 34068 ft 444 kts 356°
2026-05-07 21:12 47.68152 6.04002 34073 ft 444 kts 356°
2026-05-07 21:13 47.74330 6.04414 34071 ft 448 kts
2026-05-07 21:13 47.80432 6.06538 34072 ft 451 kts 10°
2026-05-07 21:14 47.86480 6.08814 34075 ft 451 kts 10°
2026-05-07 21:14 47.92573 6.11104 34069 ft 451 kts 10°
2026-05-07 21:15 47.98659 6.13404 34073 ft 451 kts 10°
2026-05-07 21:15 48.04751 6.15710 34080 ft 451 kts 10°
2026-05-07 21:16 48.10835 6.18015 34094 ft 451 kts 10°
2026-05-07 21:16 48.16922 6.20333 34094 ft 451 kts 10°
2026-05-07 21:17 48.22964 6.22631 34099 ft 451 kts 11°
2026-05-07 21:17 48.29042 6.24946 34106 ft 451 kts 11°
2026-05-07 21:18 48.35115 6.27272 34099 ft 450 kts 11°
2026-05-07 21:18 48.41185 6.29604 34100 ft 450 kts 11°
2026-05-07 21:19 48.47254 6.31948 34097 ft 450 kts 11°
2026-05-07 21:19 48.53316 6.34286 34102 ft 450 kts 11°
2026-05-07 21:20 48.59374 6.36630 34098 ft 449 kts 11°
2026-05-07 21:20 48.65438 6.38895 34100 ft 447 kts
2026-05-07 21:21 48.71596 6.39712 34098 ft 444 kts
2026-05-07 21:21 48.77718 6.40342 34099 ft 444 kts
2026-05-07 21:22 48.83876 6.40974 34102 ft 444 kts
2026-05-07 21:22 48.90033 6.41588 34104 ft 444 kts
2026-05-07 21:23 48.96195 6.42203 34104 ft 443 kts
2026-05-07 21:23 49.02361 6.42837 34115 ft 443 kts
2026-05-07 21:24 49.08522 6.43472 34103 ft 443 kts 359°
2026-05-07 21:24 49.14567 6.42486 34107 ft 435 kts 342°
2026-05-07 21:25 49.20370 6.40080 34098 ft 435 kts 342°
2026-05-07 21:25 49.26216 6.37676 34106 ft 435 kts 342°
2026-05-07 21:26 49.32061 6.35276 34095 ft 435 kts 342°
2026-05-07 21:26 49.37916 6.32864 34091 ft 435 kts 342°
2026-05-07 21:27 49.42777 6.30845 34090 ft 435 kts 342°
2026-05-07 21:27 49.49574 6.28019 33841 ft 435 kts 342°
2026-05-07 21:28 49.52495 6.26803 33565 ft 435 kts 342°
2026-05-07 21:28 49.55428 6.25596 33291 ft 435 kts 342°
2026-05-07 21:28 49.60322 6.23604 33403 ft 435 kts 342°
2026-05-07 21:29 49.66180 6.21221 33410 ft 435 kts 342°
2026-05-07 21:29 49.71994 6.18834 33411 ft 435 kts 342°
2026-05-07 21:30 49.74909 6.17632 33263 ft 429 kts 342°
2026-05-07 21:30 49.77751 6.16460 33145 ft 417 kts 342°
2026-05-07 21:30 49.80531 6.15310 32707 ft 412 kts 342°
2026-05-07 21:30 49.83303 6.14158 32212 ft 410 kts 342°
2026-05-07 21:31 49.86049 6.13013 31715 ft 407 kts 342°
2026-05-07 21:31 49.88795 6.11928 31226 ft 406 kts 343°
2026-05-07 21:31 49.91540 6.10938 30735 ft 405 kts 345°
2026-05-07 21:31 49.94288 6.10003 30240 ft 403 kts 345°
2026-05-07 21:32 49.97025 6.09090 29703 ft 401 kts 345°
2026-05-07 21:32 49.99745 6.08178 29224 ft 398 kts 345°
2026-05-07 21:32 50.02439 6.07257 28741 ft 395 kts 345°
2026-05-07 21:32 50.05075 6.06337 28372 ft 390 kts 345°
2026-05-07 21:33 50.10341 6.04462 27671 ft 390 kts 344°
2026-05-07 21:33 50.12987 6.03517 26703 ft 389 kts 345°
2026-05-07 21:33 50.15614 6.02583 25849 ft 386 kts 345°
2026-05-07 21:34 50.18219 6.01658 25062 ft 382 kts 345°
2026-05-07 21:34 50.20792 6.00744 24303 ft 377 kts 345°
2026-05-07 21:34 50.23349 5.99835 23710 ft 375 kts 345°
2026-05-07 21:34 50.25877 5.98933 22930 ft 371 kts 345°
2026-05-07 21:35 50.28376 5.98039 22154 ft 367 kts 345°
2026-05-07 21:35 50.30848 5.97154 21400 ft 363 kts 345°
2026-05-07 21:35 50.33300 5.96276 20731 ft 359 kts 345°
2026-05-07 21:35 50.35730 5.95406 20086 ft 356 kts 345°
2026-05-07 21:36 50.38089 5.94557 19520 ft 352 kts 345°
2026-05-07 21:36 50.40473 5.93696 18874 ft 350 kts 345°
2026-05-07 21:36 50.42831 5.92850 18223 ft 347 kts 345°
2026-05-07 21:36 50.45181 5.92009 17522 ft 344 kts 345°
2026-05-07 21:37 50.47506 5.91177 16848 ft 341 kts 345°
2026-05-07 21:37 50.49793 5.90357 16508 ft 329 kts 345°
2026-05-07 21:37 50.51983 5.89572 16114 ft 318 kts 345°
2026-05-07 21:37 50.54124 5.88801 15522 ft 314 kts 345°
2026-05-07 21:38 50.56245 5.88034 14908 ft 311 kts 345°
2026-05-07 21:38 50.58346 5.87268 14299 ft 309 kts 345°
2026-05-07 21:38 50.60437 5.86503 13681 ft 306 kts 343°
2026-05-07 21:38 50.62387 5.85367 13042 ft 301 kts 331°
2026-05-07 21:39 50.64153 5.83646 12427 ft 297 kts 320°
2026-05-07 21:39 50.65653 5.81449 11799 ft 293 kts 309°
2026-05-07 21:39 50.66837 5.78871 11180 ft 290 kts 298°
2026-05-07 21:39 50.67760 5.76058 10565 ft 288 kts 296°
2026-05-07 21:40 50.68659 5.73252 9976 ft 286 kts 296°
2026-05-07 21:40 50.69561 5.70449 9528 ft 287 kts 296°
2026-05-07 21:40 50.70459 5.67656 9205 ft 284 kts 296°
2026-05-07 21:40 50.71348 5.64881 8870 ft 283 kts 296°
2026-05-07 21:41 50.72232 5.62121 8545 ft 281 kts 296°
2026-05-07 21:41 50.73110 5.59385 8214 ft 280 kts 296°
2026-05-07 21:41 50.73990 5.56644 7895 ft 278 kts 296°
2026-05-07 21:41 50.74860 5.53931 7579 ft 277 kts 296°
2026-05-07 21:42 50.75719 5.51244 7393 ft 270 kts 296°
2026-05-07 21:42 50.76553 5.48637 7265 ft 262 kts 296°
2026-05-07 21:42 50.77359 5.46105 7149 ft 255 kts 296°
2026-05-07 21:42 50.78151 5.43614 7105 ft 253 kts 296°
2026-05-07 21:43 50.78942 5.41121 7105 ft 254 kts 296°
2026-05-07 21:43 50.79732 5.38631 7107 ft 254 kts 296°
2026-05-07 21:43 50.80523 5.36133 7101 ft 254 kts 296°
2026-05-07 21:43 50.81304 5.33669 7098 ft 254 kts 296°
2026-05-07 21:44 50.82094 5.31175 7099 ft 254 kts 296°
2026-05-07 21:44 50.82884 5.28675 7098 ft 254 kts 296°
2026-05-07 21:44 50.83671 5.26176 7090 ft 254 kts 296°
2026-05-07 21:44 50.84458 5.23672 7091 ft 254 kts 296°
2026-05-07 21:45 50.85241 5.21173 7098 ft 254 kts 296°
2026-05-07 21:45 50.86025 5.18670 7095 ft 254 kts 296°
2026-05-07 21:45 50.86813 5.16164 7093 ft 254 kts 296°
2026-05-07 21:45 50.87599 5.13664 7088 ft 254 kts 296°
2026-05-07 21:46 50.88375 5.11147 6980 ft 253 kts 295°
2026-05-07 21:46 50.89129 5.08632 6857 ft 253 kts 295°
2026-05-07 21:46 50.89878 5.06112 6732 ft 252 kts 295°
2026-05-07 21:46 50.90630 5.03569 6330 ft 258 kts 295°
2026-05-07 21:47 50.91384 5.01015 6135 ft 253 kts 295°
2026-05-07 21:47 50.92129 4.98505 5868 ft 250 kts 295°
2026-05-07 21:47 50.92869 4.96009 5568 ft 250 kts 295°
2026-05-07 21:47 50.93596 4.93551 5238 ft 251 kts 295°
2026-05-07 21:48 50.94360 4.90974 4558 ft 266 kts 295°
2026-05-07 21:48 50.95148 4.88308 4245 ft 265 kts 295°
2026-05-07 21:48 50.95919 4.85692 4094 ft 258 kts 295°
2026-05-07 21:48 50.96665 4.83162 3980 ft 250 kts 295°
2026-05-07 21:49 50.97397 4.80679 3883 ft 248 kts 295°
2026-05-07 21:49 50.98068 4.78162 3778 ft 248 kts 285°
2026-05-07 21:49 50.98223 4.75466 3574 ft 246 kts 262°
2026-05-07 21:49 50.97745 4.72896 3285 ft 243 kts 244°
2026-05-07 21:50 50.97046 4.70464 2967 ft 243 kts 244°
2026-05-07 21:50 50.96343 4.68019 2641 ft 243 kts 244°
2026-05-07 21:50 50.95645 4.65581 2312 ft 242 kts 245°
2026-05-07 21:50 50.94957 4.63177 1972 ft 234 kts 245°
2026-05-07 21:51 50.94306 4.60905 1689 ft 218 kts 245°
2026-05-07 21:51 50.93705 4.58812 1399 ft 199 kts 245°
2026-05-07 21:51 50.93159 4.56911 1130 ft 179 kts 245°
2026-05-07 21:51 50.92665 4.55196 856 ft 164 kts 245°
2026-05-07 21:52 50.92210 4.53626 640 ft 152 kts 245°
2026-05-07 21:52 50.91781 4.52148 421 ft 144 kts 245°
2026-05-07 21:52 50.91382 4.50714 230 ft 141 kts 246°
2026-05-07 21:52 50.90990 4.49366 114 ft 124 kts 245°
2026-05-07 21:53 50.90702 4.48360 116 ft 75 kts 245°
2026-05-07 21:53 50.90545 4.47842 118 ft 41 kts 239°
2026-05-07 21:53 50.90383 4.47602 117 ft 20 kts 217°
2026-05-07 21:53 50.90325 4.47534 118 ft 0 kts 216°
2026-05-07 21:54 50.90321 4.47530 118 ft 1 kts 216°
2026-05-07 21:54 50.90310 4.47517 119 ft 3 kts 216°
2026-05-07 21:55 50.90293 4.47513 120 ft 2 kts 145°
2026-05-07 21:55 50.90309 4.47636 116 ft 22 kts 64°
2026-05-07 21:55 50.90376 4.47870 120 ft 24 kts 64°
2026-05-07 21:55 50.90385 4.48037 118 ft 11 kts 137°
2026-05-07 21:56 50.90381 4.48153 119 ft 13 kts 66°
2026-05-07 21:56 50.90423 4.48301 123 ft 16 kts 66°
2026-05-07 21:56 50.90475 4.48496 119 ft 22 kts 68°
2026-05-07 21:56 50.90544 4.48730 113 ft 26 kts 67°
2026-05-07 21:57 50.90585 4.48870 113 ft 10 kts 63°
2026-05-07 21:57 50.90590 4.48886 114 ft 0 kts 63°
2026-05-07 21:57 50.90588 4.48896 114 ft 2 kts 110°
2026-05-07 21:57 50.90568 4.48918 114 ft 5 kts 156°
2026-05-07 21:58 50.90531 4.48942 116 ft 6 kts 156°
2026-05-07 21:58 50.90513 4.48955 117 ft 0 kts 155°
2026-05-07 21:58 50.90512 4.48955 117 ft 0 kts 155°